KB1JDX Weather Reports


Display with metric or nautical units.
time (UTC)temp
F
wind
direction
speed
MPH
gust
MPH
rain 1hr
in
rain 24hr
in
rain mn
in
humidity
%
barometer
mb
20170623235931 75 187 0.0 11.0 0.00 0.00 0.00 76 1003.5
20170623233931 75 182 0.0 11.0 0.00 0.00 0.00 76 1003.5
20170623232130 75 220 0.0 15.0 0.00 0.00 0.00 76 1003.5
20170623231931 75 181 5.0 15.0 0.00 0.00 0.00 76 1003.5
20170623225931 76 216 1.0 15.0 0.00 0.00 0.00 76 1003.5
20170623223932 75 244 8.0 15.0 0.00 0.00 0.00 76 1003.7
20170623222130 76 205 1.0 19.0 0.00 0.00 0.00 76 1003.8
20170623221931 76 192 0.0 19.0 0.00 0.00 0.00 76 1003.8
20170623213931 78 253 10.0 19.0 0.00 0.00 0.00 74 1003.9
20170623212131 79 232 10.0 18.0 0.00 0.00 0.00 72 1003.7
20170623211931 79 267 5.0 18.0 0.00 0.00 0.00 73 1003.7
20170623203930 82 223 6.0 18.0 0.00 0.00 0.00 68 1003.8
20170623202129 82 213 8.0 16.0 0.00 0.00 0.00 68 1004.1
20170623201930 83 184 9.0 16.0 0.00 0.00 0.00 68 1004.0
20170623195931 84 152 4.0 19.0 0.00 0.00 0.00 64 1004.4
20170623193931 84 236 9.0 19.0 0.00 0.00 0.00 65 1004.5
20170623192130 85 196 6.0 16.0 0.00 0.00 0.00 62 1004.6
20170623191931 86 208 9.0 16.0 0.00 0.00 0.00 61 1004.6
20170623185930 85 239 9.0 20.0 0.00 0.00 0.00 62 1004.9
20170623183930 85 207 6.0 20.0 0.00 0.00 0.00 60 1005.3
20170623182131 85 258 9.0 23.0 0.00 0.00 0.00 59 1005.5
20170623181931 85 229 8.0 23.0 0.00 0.00 0.00 59 1005.5
20170623175932 86 212 10.0 20.0 0.00 0.00 0.00 59 1005.7
20170623173931 87 246 11.0 20.0 0.00 0.00 0.00 59 1005.8
20170623172131 87 184 5.0 24.0 0.00 0.00 0.00 59 1006.3
20170623171930 87 225 5.0 24.0 0.00 0.00 0.00 58 1006.3
20170623165931 87 174 6.0 19.0 0.00 0.00 0.00 65 1006.6
20170623163931 86 222 11.0 19.0 0.00 0.00 0.00 65 1007.1
20170623162131 87 211 7.0 16.0 0.00 0.00 0.00 64 1007.1
20170623161931 87 145 7.0 16.0 0.00 0.00 0.00 65 1007.2
20170623155931 87 233 5.0 14.0 0.00 0.00 0.00 64 1007.3
20170623153931 87 211 1.0 14.0 0.00 0.00 0.00 64 1007.5
20170623152310 86 237 12.0 11.0 0.00 0.00 0.00 65 1007.8
20170623152130 86 216 7.0 11.0 0.00 0.00 0.00 66 1007.7
20170623151931 86 237 12.0 11.0 0.00 0.00 0.00 65 1007.8
20170623145932 84 236 6.0 11.0 0.00 0.00 0.00 68 1008.0
20170623143931 83 226 6.0 11.0 0.00 0.00 0.00 70 1008.3
20170623142130 82 262 2.0 14.0 0.00 0.00 0.00 71 1008.5
20170623140046 81 205 0.0 9.0 0.00 0.00 0.00 73 1008.7
20170623135932 81 205 0.0 9.0 0.00 0.00 0.00 73 1008.7
20170623133932 78 237 0.0 9.0 0.00 0.00 0.00 75 1009.0
20170623132328 76 198 6.0 7.0 0.00 0.00 0.00 76 1009.3
20170623132130 76 221 5.0 7.0 0.00 0.00 0.00 76 1009.3
20170623131931 76 198 6.0 7.0 0.00 0.00 0.00 76 1009.3
20170623123932 71 192 1.0 6.0 0.00 0.00 0.00 76 1009.8
20170623122132 70 175 0.0 2.0 0.00 0.00 0.00 76 1009.9
20170623121933 70 175 0.0 2.0 0.00 0.00 0.00 76 1010.0
20170623115932 69 167 0.0 1.0 0.00 0.00 0.00 76 1009.9
20170623112130 68 161 0.0 3.0 0.00 0.00 0.00 76 1010.0
20170623111932 68 161 0.0 3.0 0.00 0.00 0.00 76 1010.0
20170623105932 67 160 0.0 1.0 0.00 0.00 0.00 76 1010.0
20170623103932 66 155 0.0 1.0 0.00 0.00 0.00 76 1009.9
20170623102131 66 154 0.0 1.0 0.00 0.00 0.00 76 1010.1
20170623101931 66 154 0.0 1.0 0.00 0.00 0.00 76 1010.1
20170623095931 65 153 0.0 0.0 0.00 0.00 0.00 76 1010.1
20170623093933 65 202 0.0 0.0 0.00 0.00 0.00 76 1010.1
20170623092131 65 202 0.0 0.0 0.00 0.00 0.00 77 1010.1
20170623091933 65 202 0.0 0.0 0.00 0.00 0.00 76 1010.1
20170623085932 64 202 0.0 0.0 0.00 0.00 0.00 77 1010.1
20170623083932 64 202 0.0 0.0 0.00 0.00 0.00 77 1010.0
20170623082131 64 202 0.0 0.0 0.00 0.00 0.00 77 1010.2
20170623081933 64 202 0.0 0.0 0.00 0.00 0.00 77 1010.3
20170623075931 65 202 0.0 0.0 0.00 0.00 0.00 77 1010.3
20170623073932 65 201 0.0 0.0 0.00 0.00 0.00 77 1010.2
20170623072132 66 200 0.0 0.0 0.00 0.00 0.00 77 1010.3
20170623071931 66 200 0.0 0.0 0.00 0.00 0.00 77 1010.4
20170623070256 66 201 0.0 6.0 0.00 0.00 0.00 77 1010.4
20170623065932 66 201 0.0 6.0 0.00 0.00 0.00 77 1010.4
20170623063932 67 200 0.0 6.0 0.00 0.00 0.00 77 1010.6
20170623062245 68 201 0.0 1.0 0.00 0.00 0.00 77 1011.1
20170623062131 68 200 0.0 1.0 0.00 0.00 0.00 77 1011.0
20170623061932 68 201 0.0 1.0 0.00 0.00 0.00 77 1011.1
20170623055932 68 190 0.0 0.0 0.00 0.00 0.00 76 1011.4
20170623053931 68 190 0.0 0.0 0.00 0.00 0.00 76 1011.5
20170623052132 68 190 0.0 0.0 0.00 0.00 0.00 75 1012.0
20170623051931 68 190 0.0 0.0 0.00 0.00 0.00 75 1011.8
20170623045931 68 190 0.0 0.0 0.00 0.00 0.00 75 1012.2
20170623043934 69 190 0.0 0.0 0.00 0.00 0.00 74 1012.3
20170623042245 69 190 0.0 6.0 0.00 0.00 0.00 73 1012.6
20170623042131 69 190 0.0 6.0 0.00 0.00 0.00 73 1012.6
20170623041933 69 190 0.0 6.0 0.00 0.00 0.00 73 1012.6
20170623040237 70 190 0.0 4.0 0.00 0.00 0.00 72 1012.8
20170623035932 70 190 0.0 4.0 0.00 0.00 0.00 72 1012.8
20170623033933 70 190 0.0 4.0 0.00 0.00 0.00 70 1013.1
20170623032131 70 200 0.0 5.0 0.00 0.00 0.00 69 1013.1
20170623031932 70 200 0.0 5.0 0.00 0.00 0.00 69 1013.1
20170623025932 71 191 0.0 6.0 0.00 0.00 0.00 68 1013.0
20170623023933 71 191 0.0 6.0 0.00 0.00 0.00 67 1013.1
20170623022133 71 199 0.0 5.0 0.00 0.00 0.00 66 1012.9
20170623021932 71 199 0.0 5.0 0.00 0.00 0.00 66 1013.0
20170623015933 72 201 0.0 6.0 0.00 0.00 0.00 64 1013.0
20170623013934 73 173 0.0 6.0 0.00 0.00 0.00 63 1013.0
20170623012131 73 191 0.0 7.0 0.00 0.00 0.00 64 1013.1
20170623011932 73 191 0.0 7.0 0.00 0.00 0.00 63 1013.1
20170623003935 74 226 0.0 11.0 0.00 0.00 0.00 63 1012.9
20170623002132 75 240 0.0 13.0 0.00 0.00 0.00 63 1012.8
20170623001933 75 240 0.0 13.0 0.00 0.00 0.00 63 1012.8